TimeCST,TemperatureF,Dew PointF,Humidity,Sea Level PressureIn,VisibilityMPH,Wind Direction,Wind SpeedMPH,Gust SpeedMPH,PrecipitationIn,Events,Conditions,WindDirDegrees,DateUTC
12:56 AM,28.0,28.0,100,30.15,5.0,Calm,Calm,-,N/A,,Clear,0,2012-11-21 06:56:00
1:36 AM,28.4,28.4,100,30.14,6.0,Calm,Calm,-,N/A,,Scattered Clouds,0,2012-11-21 07:36:00
1:43 AM,28.4,28.4,100,30.15,5.0,Calm,Calm,-,N/A,,Mostly Cloudy,0,2012-11-21 07:43:00
1:56 AM,28.0,28.0,100,30.16,6.0,Calm,Calm,-,N/A,,Overcast,0,2012-11-21 07:56:00
2:19 AM,28.4,28.4,100,30.15,0.8,Calm,Calm,-,N/A,,Overcast,0,2012-11-21 08:19:00
2:21 AM,28.4,28.4,100,30.15,0.2,Calm,Calm,-,N/A,Fog,Light Freezing Fog,0,2012-11-21 08:21:00
2:31 AM,28.4,28.4,100,30.15,0.2,Calm,Calm,-,N/A,Fog,Light Freezing Fog,0,2012-11-21 08:31:00
2:56 AM,29.1,29.1,100,30.16,0.2,Calm,Calm,-,N/A,Fog,Light Freezing Fog,0,2012-11-21 08:56:00
3:03 AM,28.4,28.4,100,30.15,0.2,Calm,Calm,-,N/A,Fog,Light Freezing Fog,0,2012-11-21 09:03:00
3:56 AM,30.0,30.0,100,30.16,0.2,Calm,Calm,-,N/A,Fog,Light Freezing Fog,0,2012-11-21 09:56:00
4:14 AM,30.2,30.2,100,30.15,0.2,Calm,Calm,-,N/A,Fog,Light Freezing Fog,0,2012-11-21 10:14:00
5:14 AM,28.4,28.4,100,30.16,0.2,Calm,Calm,-,N/A,Fog,Light Freezing Fog,0,2012-11-21 11:14:00
6:56 AM,28.0,28.0,100,30.17,0.2,Calm,Calm,-,N/A,Fog,Light Freezing Fog,0,2012-11-21 12:56:00
7:17 AM,28.4,28.4,100,30.15,0.2,Calm,Calm,-,N/A,Fog,Light Freezing Fog,0,2012-11-21 13:17:00
7:56 AM,30.0,30.0,100,30.17,0.2,Calm,Calm,-,N/A,Fog,Light Freezing Fog,0,2012-11-21 13:56:00
8:56 AM,32.0,32.0,100,30.16,0.2,Calm,Calm,-,N/A,Fog,Fog,0,2012-11-21 14:56:00
9:56 AM,36.0,36.0,100,30.14,0.2,Calm,Calm,-,N/A,Fog,Fog,0,2012-11-21 15:56:00
10:14 AM,37.4,37.4,100,30.12,0.2,Calm,Calm,-,N/A,Fog,Fog,0,2012-11-21 16:14:00
10:29 AM,39.2,39.2,100,30.11,0.5,South,6.9,-,N/A,Fog,Fog,180,2012-11-21 16:29:00
10:33 AM,39.2,39.2,100,30.10,1.0,South,4.6,-,N/A,,Overcast,180,2012-11-21 16:33:00
10:38 AM,41.0,41.0,100,30.11,1.5,Calm,Calm,-,N/A,,Overcast,0,2012-11-21 16:38:00
10:45 AM,42.8,42.8,100,30.10,2.0,Variable,3.5,-,N/A,,Overcast,0,2012-11-21 16:45:00
10:56 AM,43.9,43.9,100,30.11,4.0,South,6.9,-,N/A,,Mostly Cloudy,180,2012-11-21 16:56:00
11:05 AM,44.6,44.6,100,30.09,5.0,SSW,6.9,-,N/A,,Partly Cloudy,210,2012-11-21 17:05:00
11:56 AM,50.0,50.0,100,30.07,10.0,SSW,10.4,-,N/A,,Clear,200,2012-11-21 17:56:00
12:56 PM,54.0,39.9,59,30.04,10.0,South,10.4,-,N/A,,Clear,170,2012-11-21 18:56:00
2:56 PM,55.9,41.0,57,29.99,10.0,South,9.2,-,N/A,,Clear,180,2012-11-21 20:56:00
3:56 PM,55.9,41.0,57,29.99,10.0,South,6.9,-,N/A,,Clear,190,2012-11-21 21:56:00
4:56 PM,52.9,39.9,61,29.99,10.0,South,6.9,-,N/A,,Clear,180,2012-11-21 22:56:00
5:56 PM,50.0,39.9,68,29.99,10.0,South,3.5,-,N/A,,Clear,170,2012-11-21 23:56:00
6:56 PM,48.9,39.9,71,29.99,10.0,Calm,Calm,-,N/A,,Clear,0,2012-11-22 00:56:00
7:56 PM,46.9,41.0,80,29.99,9.0,Calm,Calm,-,N/A,,Clear,0,2012-11-22 01:56:00
8:56 PM,46.9,41.0,80,29.98,7.0,Calm,Calm,-,N/A,,Clear,0,2012-11-22 02:56:00
9:56 PM,45.9,41.9,86,29.97,8.0,SSW,4.6,-,N/A,,Clear,200,2012-11-22 03:56:00
10:56 PM,43.9,41.9,93,29.97,7.0,Calm,Calm,-,N/A,,Clear,0,2012-11-22 04:56:00
11:56 PM,41.0,41.0,100,29.95,5.0,SSE,4.6,-,N/A,,Clear,160,2012-11-22 05:56:00